Weather History for KFLO - October, 2012

Change the Weather History Date:

Tuesday, October 30, 2012

  Actual Average Record
Temperature  
Mean Temperature 53 °F 60 °F  
Max Temperature 59 °F 72 °F 86 °F (1998)
Min Temperature 46 °F 48 °F 28 °F (1952)
Degree Days  
Heating Degree Days 12 6  
Month to date heating degree days 80 100  
Since 1 July heating degree days 80 109  
Cooling Degree Days 0 1  
Month to date cooling degree days 98 83  
Year to date cooling degree days 2308 2039  
Growing Degree Days 4 (Base 50)    
Moisture  
Dew Point 31 °F    
Average Humidity 45    
Maximum Humidity 54    
Minimum Humidity 36    
Precipitation  
Precipitation T in 0.08 in 1.64 in (1993)
Month to date precipitation 1.76 2.99  
Year to date precipitation 35.87 37.14  
Sea Level Pressure  
Sea Level Pressure 29.54 in    
Wind  
Wind Speed 12 mph (West)    
Max Wind Speed 21 mph    
Max Gust Speed 28 mph    
Visibility 10 miles    
Events Rain    
T = Trace of Precipitation, MM = Missing Value Source: NWS Daily Summary

Daily Weather History Graph

Daily Weather History Graph

Search for Another Location

Airport or City:

Trip Planner

Search our weather history database for the weather conditions in past years. The results will help you decide how hot, cold, wet, or windy it might be!

Date:

Astronomy

Oct. 30, 2012 Rise Set
Actual Time 7:37 AM EDT 6:27 PM EDT
Civil Twilight 7:11 AM EDT 6:53 PM EDT
Nautical Twilight 6:41 AM EDT 7:22 PM EDT
Astronomical Twilight 6:12 AM EDT 7:51 PM EDT
Moon 6:59 PM EDT (10/30) 8:19 AM EDT (10/30)
Length of Visible Light 11h 41m
Length of Day
10h 49m
Full, 99% of the Moon is Illuminated
Oct 30
Full
Nov 6
Last Quarter
Nov 13
New
Nov 20
First Quarter
Nov 28
Full

Hourly Weather History & Observations

Time (EDT) Temp. Dew Point Humidity Pressure Visibility Wind Dir Wind Speed Gust Speed Precip Events Conditions
12:53 AM 50.0 °F 30.9 °F 48% 29.49 in 10.0 mi West 9.2 mph 18.4 mph N/A   Overcast
1:53 AM 50.0 °F 30.9 °F 48% 29.47 in 10.0 mi West 12.7 mph - N/A   Overcast
2:53 AM 50.0 °F 30.0 °F 46% 29.47 in 10.0 mi West 13.8 mph 19.6 mph N/A   Overcast
3:53 AM 50.0 °F 30.0 °F 46% 29.46 in 10.0 mi West 10.4 mph - N/A   Overcast
4:53 AM 50.0 °F 30.0 °F 46% 29.47 in 10.0 mi West 12.7 mph - N/A   Mostly Cloudy
5:53 AM 48.9 °F 28.9 °F 46% 29.47 in 10.0 mi WNW 11.5 mph - N/A   Mostly Cloudy
7:53 AM 48.9 °F 28.9 °F 46% 29.50 in 10.0 mi West 15.0 mph 19.6 mph 0.00 in   Overcast
8:53 AM 50.0 °F 30.9 °F 48% 29.52 in 10.0 mi WSW 11.5 mph 17.3 mph N/A   Overcast
9:53 AM 50.0 °F 30.9 °F 48% 29.54 in 10.0 mi West 11.5 mph - 0.00 in Rain Light Rain
10:53 AM 50.0 °F 34.0 °F 54% 29.54 in 10.0 mi WSW 10.4 mph - 0.00 in   Overcast
11:53 AM 54.0 °F 32.0 °F 43% 29.53 in 10.0 mi West 10.4 mph 17.3 mph N/A   Overcast
12:53 PM 55.9 °F 32.0 °F 40% 29.52 in 10.0 mi WSW 13.8 mph 17.3 mph N/A   Overcast
1:53 PM 57.0 °F 32.0 °F 39% 29.51 in 10.0 mi West 16.1 mph 23.0 mph N/A   Overcast
2:53 PM 59.0 °F 32.0 °F 36% 29.51 in 10.0 mi West 16.1 mph 21.9 mph N/A   Mostly Cloudy
3:53 PM 57.9 °F 33.1 °F 39% 29.51 in 10.0 mi WSW 15.0 mph 25.3 mph N/A   Overcast
4:53 PM 57.0 °F 30.9 °F 37% 29.54 in 10.0 mi WSW 18.4 mph 24.2 mph N/A   Overcast
5:53 PM 55.9 °F 32.0 °F 40% 29.56 in 10.0 mi West 11.5 mph - N/A   Mostly Cloudy
6:53 PM 55.0 °F 30.0 °F 38% 29.59 in 10.0 mi West 12.7 mph 20.7 mph N/A   Mostly Cloudy
7:53 PM 54.0 °F 30.9 °F 41% 29.62 in 10.0 mi West 9.2 mph 18.4 mph N/A   Overcast
8:53 PM 54.0 °F 32.0 °F 43% 29.65 in 10.0 mi NW 13.8 mph 19.6 mph N/A   Overcast
9:53 PM 51.1 °F 35.1 °F 54% 29.68 in 10.0 mi Calm Calm - N/A   Overcast
10:53 PM 51.1 °F 34.0 °F 52% 29.69 in 10.0 mi West 4.6 mph - N/A   Scattered Clouds
11:53 PM 50.0 °F 33.1 °F 52% 29.69 in 10.0 mi West 9.2 mph - N/A   Clear